Regional Weather Roundup
Issued by NWS

Home | Current Version | Previous Version | Text Only | Print | Product List | Glossary Off
Versions: 1 2 3 4 5 6 7 8 9 10 11 12 13 14 15 16 17 18 19 20 21 22 23 24 25 26 27 28 29 30 31 32 33 34 35 36 37 38 39 40 41 42 43 44 45 46 47 48 49 50

000
ASUS45 KCYS 160110
RWRWY

WYOMING REGIONAL WEATHER ROUNDUP
NATIONAL WEATHER SERVICE CHEYENNE WY
600 PM MST MON JAN 15 2018

NOTE:  "FAIR" INDICATES FEW OR NO CLOUDS BELOW 12,000 FEET
WITH NO SIGNIFICANT WEATHER AND/OR OBSTRUCTIONS TO VISIBILITY.

WYZ001-160200-
YELLOWSTONE NATIONAL PARK

CITY           SKY/WX    TMP DP  RH WIND       PRES   REMARKS
LK YELLOWSTONE   N/A     12   9  87 NW3       30.37S
W YELLOWSTONE  NOT AVBL

$$
WYZ002>013-054>058-071-098>099-160200-
NORTHERN WYOMING

CITY           SKY/WX    TMP DP  RH WIND       PRES   REMARKS
JACKSON        FOG       19  17  92 CALM      30.38R VSB 1/4
CODY           MOCLDY    16  11  80 E9        30.48F WCI   4
GREYBULL       FAIR      14   7  73 SE3       30.56S
WORLAND        FAIR       6   3  87 E6        30.54S WCI  -4
SHERIDAN       FAIR      -6 -10  83 N6        30.59S WCI -19
BUFFALO        FAIR       5  -2  72 CALM      30.51S
GILLETTE         N/A    -11 -16  78 S3        30.57F
HULETT         FAIR      -8 -13  77 MISG      30.59S
NEWCASTLE      FAIR      -6 -11  77 N12       30.60R WCI -24

$$
WYZ014>020-022>026-101>103-160200-
CENTRAL WYOMING

CITY           SKY/WX    TMP DP  RH WIND       PRES   REMARKS
BIG PINEY      CLOUDY    27  22  81 S5        30.39R WCI  22
PINEDALE       CLOUDY    27  19  74 S5        30.40R WCI  21
DUBOIS         CLOUDY    21  18  86 SW3       30.38R
LANDER         CLOUDY    23  17  78 CALM      30.44S
RIVERTON       FAIR      19   8  62 SW3       30.46S
CASPER         FAIR       7  -1  70 MISG      30.50R
DOUGLAS        FAIR       7  -8  50 N7        30.53S WCI  -5

$$
WYZ021-027>030-104>119-160200-
SOUTHERN WYOMING

CITY           SKY/WX    TMP DP  RH WIND       PRES   REMARKS
EVANSTON       FAIR      28  21  75 E14       30.33R WCI  17
FORT BRIDGER   FAIR      26  19  74 E9        30.40R WCI  16
ROCK SPRINGS   FAIR      21  12  68 E9        30.40S WCI  11
DIXON            N/A     23   9  55 N10       30.41S WCI  13
RAWLINS        FAIR      15   1  53 NE6       30.40S WCI   6
SARATOGA       FAIR      18  -9  29 NW5       30.40S WCI  11
LARAMIE        FAIR       4  -9  55 NW6       30.36R WCI  -7
CHEYENNE       FAIR       6  -3  66 N7        30.42R WCI  -6
TORRINGTON     FAIR       8  -2  63 NW10      30.57R WCI  -6

$$



USA.gov is the U.S. government's official web portal to all federal, state and local government web resources and services.